Terug naar catalogus

STARLINK-33764

ActiefCommunicatieVLEO
NORAD 63510·PAYLOAD·🇺🇸 United States

Gelanceerd Apr 7, 2025 vanaf Vandenberg Space Force Base

Loading…

Volgende Passages (komende 24 uur)

TLE

VersSource: CelesTrak SupGP

Epoch: Sep 15, 2026, 02:41 UTC

1 63510C 25071T   26258.11229167  .00072260  00000+0  21353-2 0  2582
2 63510  53.1573 338.6083 0001201  90.6187 195.2128 15.34349799    10

Volg STARLINK-33764 in realtime met AllMySat

Download on the App Store